[[{"header":{"parameterUnit":"m.s-1","parameterCategory":2,"la1":30.2991,"la2":30.254,"lo1":-89.0895,"lo2":-89.0444,"dy":0.0017,"dx":0.0017,"nx":28,"ny":28,"refTime":"2025-03-18T21:00:00:Z","depth":"0","parameterNumber":2,"parameterNumberName":"U-component_of_CURRENTS"},"data":[0,0,0,0,0,0,0,0,0,0,0,0,0,0,0,0,0,0,0,0,0,0,0,0,0,0,0,0,0,0,0,0,0,0,0,0,0,0,0,0,0,0,0,0,0,0,0,0,0,0,0,0,0,0,0,0,0,0,-0.2965,-0.2966,0,-0.3007,-0.3007,-0.3007,-0.2935,-0.2933,-0.2931,-0.2929,-0.2937,-0.2939,-0.2941,0,0,0,0,0,0,0,0,0,0,0,0,0,-0.2855,-0.2857,-0.2965,-0.2966,-0.2967,-0.3007,-0.3007,-0.3007,-0.2936,-0.2933,-0.2931,-0.2928,-0.2936,-0.2939,-0.2941,0,0,0,0,0,0,0,0,0,0,0,0,0,-0.2896,-0.2858,-0.2965,-0.294,-0.2938,-0.3007,-0.3007,-0.3007,-0.2936,-0.2933,-0.293,-0.2927,-0.2935,-0.2938,-0.2942,-0.3021,0,0,-0.2951,-0.2952,0,0,0,0,0,0,0,0,-0.2894,-0.2899,-0.2942,-0.2942,-0.294,-0.2967,-0.2972,-0.3012,-0.2937,-0.2932,-0.2929,-0.2926,-0.2949,-0.2951,-0.2959,-0.3021,-0.3021,-0.2951,-0.2953,-0.2955,-0.2955,0,0,0,0,0,0,0,-0.2891,-0.2898,-0.2977,-0.2944,-0.2942,-0.2938,-0.2939,-0.2979,-0.2952,-0.2932,-0.2928,-0.2941,-0.2947,-0.2956,-0.2959,-0.3021,-0.2951,-0.2954,-0.2956,-0.2957,-0.3095,-0.3097,0,0,0,0,0,0,-0.2898,-0.2895,-0.2976,-0.2979,-0.2915,-0.2942,-0.2944,-0.2958,-0.2953,-0.2951,-0.2944,-0.2938,-0.2953,-0.2955,-0.2959,-0.3015,-0.2954,-0.2957,-0.2959,-0.3094,-0.3096,-0.3098,0,0,0,0,0,0,-0.2895,-0.2905,-0.2974,-0.2941,-0.295,-0.2948,-0.2963,-0.296,-0.2961,-0.2963,-0.2958,-0.2947,-0.295,-0.2954,-0.299,-0.3015,-0.2959,-0.2962,-0.3092,-0.3094,-0.3097,-0.315,0,0,0,0,0,0,-0.2892,-0.2904,-0.2914,-0.2942,-0.2953,-0.3023,-0.2967,-0.2963,-0.2977,-0.2969,-0.2966,-0.2963,-0.2948,-0.2985,-0.2993,-0.3019,-0.2964,-0.3089,-0.3093,-0.3096,-0.3146,-0.3155,-0.3162,0,0,0,0,0,-0.2888,-0.2924,-0.2914,-0.2924,-0.2967,-0.3026,-0.3031,-0.3015,-0.298,-0.2999,-0.2986,-0.2963,-0.3011,-0.299,-0.2998,-0.3025,-0.3088,-0.3092,-0.3096,-0.3143,-0.3153,-0.3162,0,0,0,0,0,0,-0.2885,-0.2922,-0.291,-0.2955,-0.2989,-0.3015,-0.3038,-0.3027,-0.3034,-0.3018,-0.2998,-0.2998,-0.3033,-0.3034,-0.3011,-0.3075,-0.3043,-0.3049,-0.3076,-0.3085,-0.3093,-0.3084,-0.2967,0,0,0,0,0,-0.2892,-0.2916,-0.2958,-0.2989,-0.3014,-0.3025,-0.3044,-0.3039,-0.3054,-0.3051,-0.3046,-0.3046,-0.3064,-0.3075,-0.309,-0.3144,-0.3113,-0.3164,-0.3171,-0.3178,-0.3177,-0.3172,-0.3178,-0.3111,-0.3111,-0.3111,0,0,-0.2897,-0.2921,-0.2933,-0.2989,-0.301,-0.3054,-0.3028,-0.307,-0.3091,-0.3057,-0.308,-0.3078,-0.3084,-0.3124,-0.3141,-0.3125,-0.3178,-0.3183,-0.3188,-0.3184,-0.3177,-0.3183,-0.3188,-0.3114,-0.3113,-0.3113,0,0,-0.2926,-0.2948,-0.2978,-0.3017,-0.3065,-0.3081,-0.3096,-0.313,-0.3131,-0.3173,-0.3139,-0.3158,-0.319,-0.3193,-0.32,-0.3272,-0.3217,-0.3272,-0.3308,-0.3304,-0.3308,-0.3312,-0.3259,-0.3258,-0.3278,-0.3278,-0.3278,0,-0.2928,-0.2963,-0.3,-0.3048,-0.3073,-0.3094,-0.3133,-0.3163,-0.3194,-0.3203,-0.3184,-0.3215,-0.3225,-0.3262,-0.3277,-0.3289,-0.3252,-0.3269,-0.3311,-0.3315,-0.3318,-0.3263,-0.326,-0.3281,-0.328,-0.328,-0.328,0,-0.2984,-0.3007,-0.3039,-0.3089,-0.3135,-0.3175,-0.3226,-0.3257,-0.3256,-0.3269,-0.3303,-0.3314,-0.3322,-0.3338,-0.333,-0.3362,-0.3315,-0.3317,-0.3281,-0.3327,-0.3266,-0.3263,-0.3285,-0.3284,-0.3283,-0.3282,0,0,-0.2969,-0.3055,-0.3057,-0.307,-0.315,-0.3187,-0.3253,-0.3303,-0.3321,-0.3356,-0.3371,-0.3416,-0.3401,-0.3408,-0.3401,-0.3408,-0.34,-0.3371,-0.3369,-0.3306,-0.3342,-0.3152,-0.313,-0.3399,-0.3399,-0.34,-0.3281,0,-0.298,-0.3046,-0.3098,-0.3144,-0.3172,-0.3229,-0.3283,-0.3337,-0.3368,-0.3397,-0.3421,-0.3436,-0.3435,-0.3429,-0.3442,-0.3417,-0.3397,-0.3428,-0.3318,-0.3313,-0.313,-0.3123,-0.2912,-0.2775,-0.3278,-0.3277,-0.3277,0,-0.2986,-0.3028,-0.3076,-0.3136,-0.3159,-0.3199,-0.3263,-0.3317,-0.3388,-0.3414,-0.3444,-0.3452,-0.3479,-0.3462,-0.3439,-0.3452,-0.3395,-0.3369,-0.3364,-0.3165,-0.3118,-0.2817,-0.275,-0.2745,-0.3271,-0.3272,-0.3272,0,-0.2906,-0.2991,-0.3013,-0.3041,-0.314,-0.3167,-0.3216,-0.3301,-0.3332,-0.3408,-0.3419,-0.3464,-0.3451,-0.344,-0.339,-0.3411,-0.3328,-0.3353,-0.3121,-0.3105,-0.2893,-0.2857,-0.2794,-0.3308,-0.3308,-0.3309,-0.3309,0,-0.2863,-0.2874,-0.2971,-0.2984,-0.3006,-0.3108,-0.3136,-0.3204,-0.3283,-0.3298,-0.3397,-0.3387,-0.3441,-0.3404,-0.3378,-0.3214,-0.3312,-0.3104,-0.3062,-0.2901,-0.2869,-0.2827,-0.2916,-0.3304,-0.3305,-0.3306,-0.3307,0,-0.2748,-0.2817,-0.2834,-0.2934,-0.2957,-0.2967,-0.3057,-0.3078,-0.3185,-0.3203,-0.322,-0.3304,-0.325,-0.3259,-0.3214,-0.3142,-0.2981,-0.2963,-0.2742,-0.2674,-0.2438,-0.2538,-0.2463,-0.2382,-0.2688,-0.2683,-0.2678,0,-0.2691,-0.269,-0.2762,-0.2761,-0.2794,-0.2835,-0.2855,-0.2988,-0.3013,-0.3122,-0.3103,-0.3096,-0.3037,-0.2905,-0.2779,-0.2651,-0.2742,-0.2391,-0.24,-0.2367,-0.2452,-0.2562,-0.251,-0.214,-0.2131,-0.2124,-0.2118,0,-0.2567,-0.2589,-0.261,-0.2608,-0.2616,-0.2634,-0.268,-0.2687,-0.283,-0.2849,-0.2844,-0.2816,-0.2682,-0.2449,-0.2289,-0.2206,-0.2329,-0.2236,-0.2278,-0.2064,-0.2108,-0.2025,-0.2271,-0.2056,-0.2062,-0.2066,-0.207,-0.2072,-0.245,-0.2429,-0.2448,-0.2425,-0.243,-0.2402,-0.2351,-0.2413,-0.2404,-0.2388,-0.2501,-0.239,-0.2236,-0.1956,-0.1859,-0.162,-0.1824,-0.1573,-0.1707,-0.183,-0.1721,-0.1791,-0.1488,-0.1491,-0.1493,-0.1495,-0.1497,0,-0.2292,-0.2288,-0.2263,-0.2222,-0.2145,-0.2216,-0.2197,-0.2118,-0.2021,-0.2046,-0.1997,-0.1838,-0.1585,-0.1494,-0.1247,-0.1153,-0.1164,-0.1166,-0.1312,-0.129,-0.1373,-0.1314,-0.0865,-0.0865,-0.0865,-0.0866,-0.0866,-0.0866,-0.221,-0.2137,-0.2124,-0.1942,-0.1905,-0.1749,-0.1693,-0.1605,-0.1571,-0.1418,-0.1346,-0.1329,-0.1315,-0.1348,-0.1154,-0.1045,-0.1117,-0.1036,-0.1176,-0.1286,-0.1337,-0.1386,-0.1347,-0.0913,-0.0913,-0.0956,-0.0957,-0.0958]},{"header":{"parameterUnit":"m.s-1","parameterCategory":2,"la1":30.2991,"la2":30.254,"lo1":-89.0895,"lo2":-89.0444,"dy":0.0017,"dx":0.0017,"nx":28,"ny":28,"refTime":"2025-03-18T21:00:00:Z","depth":"0","parameterNumber":3,"parameterNumberName":"V-component_of_CURRENTS"},"data":[0,0,0,0,0,0,0,0,0,0,0,0,0,0,0,0,0,0,0,0,0,0,0,0,0,0,0,0,0,0,0,0,0,0,0,0,0,0,0,0,0,0,0,0,0,0,0,0,0,0,0,0,0,0,0,0,0,0,-0.0198,-0.0197,0,-0.0121,-0.012,-0.012,-0.0042,-0.0041,-0.004,-0.0039,0.0088,0.009,0.0093,0,0,0,0,0,0,0,0,0,0,0,0,0,-0.0247,-0.0246,-0.0198,-0.0197,-0.0196,-0.0122,-0.012,-0.0119,-0.0042,-0.0041,-0.004,-0.0039,0.0087,0.009,0.0093,0,0,0,0,0,0,0,0,0,0,0,0,0,-0.0203,-0.0246,-0.0198,-0.0149,-0.0144,-0.0122,-0.012,-0.0119,-0.0043,-0.0041,-0.004,-0.0038,0.0086,0.009,0.0094,0.0086,0,0,0.0105,0.0106,0,0,0,0,0,0,0,0,-0.0206,-0.0201,-0.0157,-0.0153,-0.0147,-0.009,-0.0091,-0.0048,-0.0043,-0.0081,-0.0039,-0.0038,0.0032,0.004,0.0051,0.0092,0.0098,0.0105,0.0107,0.0109,0.011,0,0,0,0,0,0,0,-0.0209,-0.0204,-0.0167,-0.0157,-0.015,-0.012,-0.0113,-0.0082,-0.0033,-0.0077,-0.0072,-0.0064,0.0035,0.0047,0.0055,0.01,0.0105,0.0108,0.0111,0.0112,0.0158,0.0157,0,0,0,0,0,0,-0.0223,-0.0207,-0.017,-0.0165,-0.0174,-0.0121,-0.0112,-0.011,-0.0034,-0.0021,-0.0066,-0.0061,0.004,0.005,0.006,0.0062,0.0109,0.0112,0.0115,0.0159,0.0158,0.0157,0,0,0,0,0,0,-0.0224,-0.022,-0.0173,-0.0184,-0.0176,-0.0122,-0.0119,-0.0109,-0.0093,-0.0026,-0.0012,-0.006,0.0042,0.0054,0.0085,0.0068,0.0114,0.0117,0.016,0.0159,0.0157,0.0064,0,0,0,0,0,0,-0.0226,-0.0221,-0.0228,-0.0186,-0.0176,-0.0169,-0.012,-0.0108,-0.0091,-0.0084,-0.0016,-0.0003,0.0044,0.0079,0.0088,0.0074,0.012,0.0161,0.0159,0.0158,0.0068,0.0059,0.0052,0,0,0,0,0,-0.0228,-0.0244,-0.0229,-0.0225,-0.0186,-0.0171,-0.0164,-0.0119,-0.0093,-0.0097,-0.0047,-0.0005,0.0074,0.0081,0.0092,0.0079,0.0162,0.016,0.0158,0.0072,0.0061,0.0052,0,0,0,0,0,0,-0.0267,-0.0236,-0.0219,-0.0224,-0.0204,-0.0158,-0.0158,-0.0128,-0.0094,-0.0087,-0.0016,-0.0,0.002,0.0058,0.0064,0.0085,0.0124,0.0124,0.0055,0.0045,0.0037,0.0027,0.0123,0,0,0,0,0,-0.0281,-0.0286,-0.0251,-0.0258,-0.0251,-0.0207,-0.0196,-0.0171,-0.0133,-0.0116,-0.0066,-0.0018,0.0017,0.0038,0.0074,0.0084,0.0139,0.0082,0.0073,0.0066,0.0065,0.0127,0.0125,0.0149,0.0149,0.0149,0,0,-0.0299,-0.0283,-0.0285,-0.0267,-0.0246,-0.0253,-0.0197,-0.0192,-0.0193,-0.0109,-0.0094,-0.0045,0.0013,0.0028,0.004,0.0059,0.0088,0.0063,0.0057,0.006,0.0125,0.0123,0.0121,0.0148,0.0148,0.0148,0,0,-0.0347,-0.0324,-0.0349,-0.0336,-0.0318,-0.0293,-0.0296,-0.0257,-0.0234,-0.0218,-0.0158,-0.0117,-0.0067,-0.0024,0.0003,-0.0031,0.0042,-0.0026,-0.0074,-0.0014,-0.0015,-0.0016,0.0052,0.0059,-0.003,-0.0031,-0.0031,0,-0.0372,-0.0389,-0.0355,-0.0374,-0.037,-0.0317,-0.0343,-0.0318,-0.0274,-0.026,-0.0226,-0.0142,-0.009,-0.0063,-0.0071,-0.0048,-0.0001,-0.0042,-0.0024,-0.0023,-0.0022,0.0048,0.0056,-0.0035,-0.0035,-0.0034,-0.0034,0,-0.0437,-0.0446,-0.0459,-0.0465,-0.0464,-0.0472,-0.0439,-0.043,-0.0393,-0.0357,-0.0318,-0.024,-0.0187,-0.0168,-0.0126,-0.0101,-0.0066,-0.0042,0.0001,-0.003,0.0045,0.0056,-0.0042,-0.004,-0.0039,-0.0038,0,0,-0.049,-0.0504,-0.0505,-0.0525,-0.0508,-0.0517,-0.0524,-0.051,-0.0513,-0.0451,-0.0436,-0.0362,-0.0306,-0.0272,-0.021,-0.0155,-0.0099,-0.0103,-0.0098,-0.0036,0.0039,0.0099,0.0117,-0.0074,-0.0073,-0.0072,0.0088,0,-0.0545,-0.0603,-0.0592,-0.0642,-0.0665,-0.0628,-0.0641,-0.0623,-0.0583,-0.0555,-0.0461,-0.0423,-0.035,-0.0324,-0.0258,-0.0141,-0.0077,-0.0144,0.006,0.0066,0.0123,0.0129,0.0198,0.035,0.0099,0.0101,0.0102,0,-0.06,-0.0633,-0.0693,-0.0728,-0.0737,-0.0759,-0.0766,-0.0769,-0.0716,-0.0682,-0.0616,-0.054,-0.0446,-0.0382,-0.0187,-0.0235,-0.0108,-0.001,-0.0001,0.0096,0.0146,0.0341,0.0379,0.062,0.0119,0.0118,0.0116,0,-0.0646,-0.0696,-0.0748,-0.0756,-0.0791,-0.0814,-0.0825,-0.0804,-0.0812,-0.0752,-0.0743,-0.0618,-0.0552,-0.0386,-0.0175,-0.0182,0.0049,0.0067,0.0246,0.0252,0.0374,0.0388,0.0671,0.0208,0.0208,0.0207,0.0207,0,-0.0693,-0.0733,-0.0773,-0.0802,-0.0874,-0.0871,-0.0924,-0.0917,-0.09,-0.0914,-0.0805,-0.0771,-0.0551,-0.0393,-0.0199,0.0063,0.0039,0.0248,0.0299,0.0343,0.0352,0.0617,0.0707,0.0213,0.0212,0.0211,0.021,0,-0.0724,-0.0748,-0.0815,-0.0871,-0.0896,-0.0942,-0.0999,-0.1031,-0.1007,-0.1017,-0.1003,-0.0874,-0.0662,-0.0425,-0.0141,0.0033,0.0432,0.0374,0.0414,0.0467,0.0841,0.092,0.1197,0.1359,0.0593,0.0596,0.0598,0,-0.0748,-0.078,-0.0865,-0.0919,-0.0947,-0.1014,-0.1064,-0.1077,-0.1106,-0.1072,-0.1076,-0.09,-0.0762,-0.0321,0.003,0.039,0.0566,0.0656,0.0656,0.0887,0.1015,0.1031,0.1148,0.0789,0.0792,0.0795,0.0798,0,-0.0786,-0.0806,-0.0861,-0.0972,-0.1043,-0.1123,-0.1187,-0.1232,-0.1239,-0.1228,-0.1164,-0.1052,-0.0638,-0.0211,0.0249,0.0483,0.0844,0.0725,0.0966,0.1196,0.1234,0.1404,0.0658,0.0823,0.082,0.0818,0.0817,0.0816,-0.08,-0.0851,-0.0924,-0.1018,-0.1111,-0.1206,-0.1259,-0.131,-0.1341,-0.1323,-0.1211,-0.1018,-0.041,0.0252,0.052,0.1139,0.1074,0.1329,0.1409,0.1406,0.156,0.0867,0.1078,0.1077,0.1076,0.1075,0.1075,0,-0.0815,-0.0878,-0.0974,-0.1093,-0.1182,-0.1225,-0.1323,-0.1352,-0.1371,-0.1328,-0.1226,-0.062,0.0016,0.0607,0.1456,0.1797,0.1869,0.1979,0.2049,0.2142,0.1553,0.1562,0.1885,0.1885,0.1884,0.1884,0.1884,0.1884,-0.0837,-0.0907,-0.0955,-0.1107,-0.1194,-0.129,-0.1332,-0.1375,-0.135,-0.1175,-0.0898,-0.0689,0.0233,0.1536,0.234,0.2436,0.2719,0.2681,0.2838,0.246,0.2405,0.2354,0.2388,0.2879,0.288,0.3415,0.3421,0.3425]}],[{"header":{"parameterUnit":"m.s-1","parameterCategory":2,"la1":30.2991,"la2":30.254,"lo1":-89.0895,"lo2":-89.0444,"dy":0.0017,"dx":0.0017,"nx":28,"ny":28,"refTime":"2025-03-18T21:00:00:Z","depth":"2","parameterNumber":2,"parameterNumberName":"U-component_of_CURRENTS"},"data":[0,0,0,0,0,0,0,0,0,0,0,0,0,0,0,0,0,0,0,0,0,0,0,0,0,0,0,0,0,0,0,0,0,0,0,0,0,0,0,0,0,0,0,0,0,0,0,0,0,0,0,0,0,0,0,0,0,0,-0.2935,-0.2936,0,-0.2975,-0.2976,-0.2976,-0.2917,-0.2915,-0.2913,-0.2911,-0.293,-0.2932,-0.2934,0,0,0,0,0,0,0,0,0,0,0,0,0,-0.2828,-0.283,-0.2935,-0.2936,-0.2937,-0.2975,-0.2976,-0.2976,-0.2917,-0.2915,-0.2912,-0.291,-0.2929,-0.2931,-0.2934,0,0,0,0,0,0,0,0,0,0,0,0,0,-0.2869,-0.283,-0.2935,-0.2914,-0.2912,-0.2975,-0.2976,-0.2976,-0.2917,-0.2915,-0.2912,-0.2909,-0.2928,-0.2931,-0.2934,-0.3011,0,0,-0.2945,-0.2946,0,0,0,0,0,0,0,0,-0.2867,-0.2873,-0.2916,-0.2915,-0.2914,-0.294,-0.2945,-0.2987,-0.2918,-0.2913,-0.2911,-0.2908,-0.2935,-0.2937,-0.2948,-0.3012,-0.3013,-0.2945,-0.2947,-0.2948,-0.2949,0,0,0,0,0,0,0,-0.2864,-0.2871,-0.2949,-0.2917,-0.2916,-0.2909,-0.2911,-0.2952,-0.2937,-0.2913,-0.2909,-0.2919,-0.2933,-0.2945,-0.2948,-0.3013,-0.2945,-0.2948,-0.295,-0.2951,-0.3094,-0.3096,0,0,0,0,0,0,-0.2867,-0.2869,-0.2947,-0.295,-0.2886,-0.2913,-0.2916,-0.2933,-0.2937,-0.2935,-0.2921,-0.2916,-0.2941,-0.2944,-0.2948,-0.3008,-0.2948,-0.2952,-0.2953,-0.3092,-0.3095,-0.3097,0,0,0,0,0,0,-0.2864,-0.2874,-0.2946,-0.2911,-0.292,-0.2918,-0.2937,-0.2935,-0.294,-0.2943,-0.294,-0.2928,-0.2939,-0.2944,-0.2983,-0.3009,-0.2953,-0.2956,-0.309,-0.3093,-0.3096,-0.3147,0,0,0,0,0,0,-0.2861,-0.2873,-0.2884,-0.2912,-0.2922,-0.2995,-0.294,-0.2938,-0.2952,-0.2945,-0.2949,-0.2948,-0.2937,-0.2978,-0.2986,-0.3012,-0.2959,-0.3088,-0.3092,-0.3095,-0.3143,-0.3151,-0.3158,0,0,0,0,0,-0.2858,-0.2891,-0.2885,-0.2894,-0.2939,-0.2997,-0.3003,-0.2989,-0.2955,-0.2978,-0.2969,-0.2947,-0.3004,-0.2983,-0.2992,-0.3019,-0.3086,-0.3091,-0.3094,-0.314,-0.3149,-0.3158,0,0,0,0,0,0,-0.2856,-0.2889,-0.2883,-0.2925,-0.2962,-0.2988,-0.3008,-0.3,-0.3013,-0.2999,-0.2983,-0.2984,-0.3022,-0.3026,-0.3002,-0.3071,-0.3039,-0.3045,-0.307,-0.3079,-0.3087,-0.3077,-0.2961,0,0,0,0,0,-0.2863,-0.2886,-0.2927,-0.296,-0.2982,-0.2996,-0.3015,-0.3014,-0.3031,-0.3031,-0.303,-0.3033,-0.3053,-0.3066,-0.3085,-0.314,-0.3111,-0.3161,-0.3168,-0.3174,-0.3174,-0.317,-0.3176,-0.311,-0.311,-0.311,0,0,-0.2867,-0.2892,-0.2901,-0.296,-0.2981,-0.3025,-0.3,-0.3042,-0.3066,-0.3037,-0.3063,-0.3065,-0.3074,-0.3117,-0.3135,-0.3119,-0.3175,-0.3179,-0.3185,-0.3181,-0.3175,-0.3181,-0.3187,-0.3112,-0.3112,-0.3112,0,0,-0.2895,-0.2918,-0.2946,-0.2985,-0.3033,-0.3053,-0.3068,-0.3104,-0.3106,-0.3153,-0.3121,-0.3143,-0.3181,-0.3185,-0.3194,-0.3265,-0.3213,-0.3266,-0.3301,-0.3298,-0.3303,-0.3307,-0.3256,-0.3255,-0.3272,-0.3272,-0.3272,0,-0.2895,-0.2933,-0.2967,-0.3013,-0.3038,-0.3066,-0.3105,-0.3137,-0.3173,-0.3182,-0.3166,-0.3203,-0.3214,-0.3253,-0.3268,-0.3281,-0.3247,-0.3263,-0.3306,-0.3309,-0.3312,-0.3259,-0.3257,-0.3275,-0.3274,-0.3274,-0.3274,0,-0.2952,-0.2975,-0.3004,-0.3057,-0.3102,-0.3145,-0.3196,-0.3229,-0.3233,-0.3249,-0.3286,-0.33,-0.3312,-0.3327,-0.3322,-0.3353,-0.3309,-0.3311,-0.3276,-0.3321,-0.3263,-0.326,-0.3279,-0.3278,-0.3277,-0.3276,0,0,-0.2939,-0.3022,-0.3022,-0.3037,-0.3121,-0.3157,-0.3223,-0.3278,-0.3297,-0.3337,-0.3354,-0.3402,-0.3389,-0.3398,-0.3392,-0.3398,-0.3392,-0.3364,-0.3362,-0.3301,-0.3338,-0.3151,-0.3129,-0.3392,-0.3393,-0.3393,-0.3279,0,-0.2954,-0.3019,-0.3068,-0.3115,-0.3142,-0.32,-0.3255,-0.3311,-0.3347,-0.3378,-0.3404,-0.3423,-0.3423,-0.3419,-0.3432,-0.3409,-0.339,-0.3419,-0.3315,-0.3311,-0.313,-0.3123,-0.2895,-0.276,-0.3276,-0.3275,-0.3275,0,-0.296,-0.3003,-0.3051,-0.3108,-0.313,-0.3172,-0.3239,-0.3294,-0.3368,-0.3396,-0.343,-0.3441,-0.3469,-0.3453,-0.3432,-0.3444,-0.3391,-0.3365,-0.336,-0.3165,-0.3118,-0.2805,-0.2735,-0.3269,-0.327,-0.327,-0.3271,0,-0.2884,-0.2966,-0.2992,-0.302,-0.3118,-0.3145,-0.3196,-0.3281,-0.3312,-0.3391,-0.3404,-0.3453,-0.3442,-0.3433,-0.3386,-0.3406,-0.3328,-0.3352,-0.3124,-0.3109,-0.2883,-0.2846,-0.331,-0.331,-0.331,-0.331,-0.3311,0,-0.2848,-0.2858,-0.2953,-0.2968,-0.2991,-0.3088,-0.312,-0.3187,-0.3267,-0.3283,-0.3385,-0.3376,-0.3434,-0.34,-0.3375,-0.3216,-0.3313,-0.3107,-0.3066,-0.289,-0.2857,-0.3286,-0.3284,-0.3306,-0.3307,-0.3308,-0.3309,0,-0.2736,-0.2806,-0.2825,-0.2924,-0.2945,-0.2955,-0.3044,-0.3065,-0.3172,-0.3192,-0.321,-0.3297,-0.3247,-0.3259,-0.3217,-0.3147,-0.3061,-0.2972,-0.2733,-0.2665,-0.2846,-0.285,-0.2716,-0.2708,-0.2702,-0.2697,-0.2692,0,-0.2681,-0.2682,-0.2755,-0.2753,-0.2788,-0.2828,-0.2848,-0.2979,-0.3003,-0.3112,-0.3093,-0.3092,-0.3033,-0.2907,-0.2791,-0.2667,-0.2838,-0.2389,-0.2394,-0.2811,-0.2786,-0.28,-0.2811,-0.2113,-0.2104,-0.2097,-0.2091,0,-0.2563,-0.2586,-0.261,-0.2607,-0.2616,-0.2632,-0.2675,-0.2683,-0.2822,-0.2838,-0.283,-0.2802,-0.2681,-0.244,-0.2289,-0.2211,-0.2405,-0.223,-0.2729,-0.2294,-0.2232,-0.2211,-0.2245,-0.2027,-0.2033,-0.2038,-0.2041,-0.2044,-0.2449,-0.2431,-0.2452,-0.2427,-0.2433,-0.2404,-0.2353,-0.2406,-0.2392,-0.2359,-0.2474,-0.2334,-0.2301,-0.1912,-0.1797,-0.1711,-0.1887,-0.1833,-0.1861,-0.1895,-0.1841,-0.1771,-0.1466,-0.1469,-0.1472,-0.1474,-0.1476,0,-0.2291,-0.2294,-0.2269,-0.2229,-0.2149,-0.2223,-0.2201,-0.2114,-0.2006,-0.1994,-0.1927,-0.1691,-0.1483,-0.1487,-0.1221,-0.1161,-0.1218,-0.1142,-0.1235,-0.1295,-0.1351,-0.1276,-0.0748,-0.0746,-0.0744,-0.0743,0,0,-0.2211,-0.2139,-0.2125,-0.1945,-0.1912,-0.1761,-0.1704,-0.1607,-0.1543,-0.1381,-0.1284,-0.131,-0.1373,-0.1034,-0.0963,-0.0815,-0.1056,-0.0766,-0.134,-0.1505,-0.1559,-0.1722,-0.167,0,0,0,0,0]},{"header":{"parameterUnit":"m.s-1","parameterCategory":2,"la1":30.2991,"la2":30.254,"lo1":-89.0895,"lo2":-89.0444,"dy":0.0017,"dx":0.0017,"nx":28,"ny":28,"refTime":"2025-03-18T21:00:00:Z","depth":"2","parameterNumber":3,"parameterNumberName":"V-component_of_CURRENTS"},"data":[0,0,0,0,0,0,0,0,0,0,0,0,0,0,0,0,0,0,0,0,0,0,0,0,0,0,0,0,0,0,0,0,0,0,0,0,0,0,0,0,0,0,0,0,0,0,0,0,0,0,0,0,0,0,0,0,0,0,-0.0119,-0.0118,0,-0.0046,-0.0046,-0.0045,0.0018,0.0019,0.002,0.0021,0.0139,0.0141,0.0144,0,0,0,0,0,0,0,0,0,0,0,0,0,-0.0168,-0.0168,-0.0119,-0.0118,-0.0117,-0.0046,-0.0046,-0.0045,0.0018,0.0019,0.002,0.0021,0.0138,0.0141,0.0144,0,0,0,0,0,0,0,0,0,0,0,0,0,-0.0128,-0.0168,-0.0119,-0.0075,-0.0071,-0.0047,-0.0046,-0.0045,0.0018,0.0019,0.0021,0.0022,0.0137,0.0141,0.0144,0.0138,0,0,0.0155,0.0156,0,0,0,0,0,0,0,0,-0.0131,-0.0127,-0.0083,-0.0078,-0.0073,-0.002,-0.0019,0.0019,0.0017,-0.0018,0.0021,0.0022,0.0091,0.0098,0.0105,0.0144,0.0149,0.0155,0.0157,0.0159,0.016,0,0,0,0,0,0,0,-0.0134,-0.0129,-0.0092,-0.0082,-0.0076,-0.0047,-0.004,-0.0012,0.0027,-0.0015,-0.001,0.0001,0.0094,0.0101,0.0108,0.015,0.0155,0.0158,0.016,0.0161,0.0202,0.0201,0,0,0,0,0,0,-0.0142,-0.0132,-0.0095,-0.009,-0.0097,-0.0047,-0.004,-0.004,0.0026,0.0037,0.0,0.0004,0.0095,0.0104,0.0113,0.0113,0.0159,0.0162,0.0164,0.0203,0.0202,0.0201,0,0,0,0,0,0,-0.0143,-0.014,-0.0098,-0.0107,-0.0099,-0.0048,-0.0048,-0.0039,-0.0028,0.0037,0.0049,0.0003,0.0096,0.0108,0.0135,0.0118,0.0163,0.0166,0.0204,0.0203,0.0201,0.0111,0,0,0,0,0,0,-0.0145,-0.0141,-0.0148,-0.0108,-0.0099,-0.0093,-0.0049,-0.0039,-0.0022,-0.0016,0.0044,0.0056,0.0098,0.0129,0.0138,0.0123,0.0169,0.0205,0.0203,0.0202,0.0115,0.0106,0.0099,0,0,0,0,0,-0.0148,-0.0161,-0.0149,-0.0144,-0.0109,-0.0094,-0.0088,-0.0047,-0.0023,-0.003,0.0014,0.0054,0.0124,0.0131,0.0142,0.0128,0.0206,0.0204,0.0202,0.0118,0.0108,0.0099,0,0,0,0,0,0,-0.0186,-0.0154,-0.014,-0.0144,-0.0125,-0.0083,-0.0083,-0.0056,-0.0028,-0.0022,0.0043,0.0057,0.0074,0.011,0.0116,0.0133,0.0171,0.0171,0.0104,0.0094,0.0086,0.0077,0.0172,0,0,0,0,0,-0.0199,-0.0203,-0.0168,-0.0175,-0.0168,-0.0129,-0.0118,-0.0095,-0.0062,-0.0048,-0.0003,0.004,0.0071,0.009,0.0122,0.013,0.0184,0.0127,0.0119,0.0112,0.0111,0.0172,0.017,0.0193,0.0193,0.0193,0,0,-0.0214,-0.02,-0.02,-0.0184,-0.0166,-0.0174,-0.012,-0.0115,-0.0118,-0.004,-0.0032,0.0013,0.0066,0.0077,0.0087,0.0107,0.0134,0.0109,0.0103,0.0106,0.0169,0.0167,0.0165,0.0192,0.0192,0.0192,0,0,-0.0255,-0.0238,-0.0257,-0.0249,-0.0232,-0.0211,-0.0214,-0.0178,-0.0159,-0.0148,-0.0092,-0.0055,-0.0013,0.0027,0.0051,0.0017,0.0089,0.0021,-0.0025,0.0033,0.0032,0.0032,0.0099,0.0106,0.0018,0.0017,0.0017,0,-0.0275,-0.0295,-0.0261,-0.0281,-0.0283,-0.0234,-0.0261,-0.024,-0.02,-0.0188,-0.0158,-0.0084,-0.0035,-0.0012,-0.0021,0.0001,0.0047,0.0007,0.0024,0.0025,0.0026,0.0095,0.0103,0.0013,0.0013,0.0014,0.0014,0,-0.0339,-0.0347,-0.036,-0.0371,-0.0371,-0.0386,-0.0356,-0.035,-0.0318,-0.0285,-0.0252,-0.0179,-0.0132,-0.0114,-0.0076,-0.0052,-0.0017,0.0007,0.0048,0.0018,0.0093,0.0103,0.0006,0.0008,0.0009,0.001,0,0,-0.0386,-0.0403,-0.0403,-0.0426,-0.0421,-0.0431,-0.0441,-0.0433,-0.0437,-0.0381,-0.037,-0.0302,-0.0249,-0.0217,-0.0158,-0.0104,-0.0049,-0.0054,-0.0048,0.0013,0.0087,0.0144,0.0162,-0.0025,-0.0024,-0.0023,0.0136,0,-0.0443,-0.0502,-0.0493,-0.0546,-0.0571,-0.0543,-0.0559,-0.0544,-0.0509,-0.0486,-0.0396,-0.0363,-0.0293,-0.0269,-0.0205,-0.009,-0.0027,-0.0094,0.0107,0.0113,0.0168,0.0174,0.0135,0.0276,0.0147,0.0148,0.015,0,-0.0498,-0.0534,-0.0598,-0.0633,-0.0643,-0.0669,-0.0686,-0.0691,-0.0642,-0.0611,-0.055,-0.0477,-0.0387,-0.0325,-0.0135,-0.0182,-0.0058,0.0039,0.0048,0.0141,0.019,0.0285,0.03,0.0168,0.0166,0.0165,0.0164,0,-0.0546,-0.0596,-0.0654,-0.0669,-0.0706,-0.0731,-0.0746,-0.0727,-0.0736,-0.0681,-0.0673,-0.0554,-0.049,-0.0328,-0.0123,-0.013,0.0097,0.0116,0.0289,0.0295,0.0323,0.033,0.0253,0.0253,0.0253,0.0252,0.0252,0,-0.0603,-0.0644,-0.0682,-0.072,-0.0793,-0.0789,-0.0845,-0.084,-0.0825,-0.0839,-0.0736,-0.0703,-0.049,-0.0336,-0.0145,0.0111,0.0088,0.0291,0.0341,0.0291,0.0292,0.0244,0.0241,0.0258,0.0257,0.0256,0.0255,0,-0.0636,-0.0663,-0.0732,-0.0792,-0.0817,-0.0863,-0.0921,-0.0953,-0.0931,-0.0942,-0.0929,-0.0804,-0.0598,-0.0367,-0.0088,0.0082,0.0319,0.0415,0.0348,0.0388,0.0484,0.0474,0.0624,0.0627,0.063,0.0632,0.0634,0,-0.0661,-0.0695,-0.0783,-0.0837,-0.0869,-0.0936,-0.0986,-0.1,-0.1028,-0.0995,-0.0999,-0.0829,-0.0691,-0.026,0.0057,0.0403,0.0406,0.058,0.0565,0.0489,0.0523,0.0509,0.0495,0.057,0.0571,0.0572,0.0573,0,-0.0703,-0.0725,-0.0786,-0.0893,-0.0966,-0.1044,-0.1108,-0.1151,-0.1158,-0.1145,-0.1076,-0.0964,-0.0583,-0.0214,0.0221,0.042,0.0519,0.0615,0.0562,0.0477,0.045,0.0479,0.0466,0.0582,0.0581,0.0581,0.058,0.058,-0.0719,-0.0772,-0.0851,-0.0941,-0.1032,-0.1126,-0.118,-0.1216,-0.1243,-0.1169,-0.1091,-0.084,-0.0528,0.0123,0.0376,0.063,0.0636,0.0732,0.0724,0.0715,0.0676,0.0655,0.0819,0.082,0.082,0.082,0.082,0,-0.0729,-0.0807,-0.0899,-0.102,-0.1081,-0.1148,-0.1243,-0.1217,-0.1215,-0.1086,-0.0955,-0.0532,-0.0182,0.0147,0.0544,0.0767,0.0717,0.0811,0.0702,0.0693,0.0684,0.0637,0.0774,0.0775,0.0775,0.0775,0,0,-0.0753,-0.0818,-0.0865,-0.0994,-0.1093,-0.1137,-0.1176,-0.1137,-0.1019,-0.0831,-0.0629,-0.0406,-0.007,0.0224,0.0457,0.0633,0.0611,0.0647,0.0667,0.0502,0.0491,0.0628,0.0545,0,0,0,0,0]}],[{"header":{"parameterUnit":"m.s-1","parameterCategory":2,"la1":30.2991,"la2":30.254,"lo1":-89.0895,"lo2":-89.0444,"dy":0.0017,"dx":0.0017,"nx":28,"ny":28,"refTime":"2025-03-18T21:00:00:Z","depth":"4","parameterNumber":2,"parameterNumberName":"U-component_of_CURRENTS"},"data":[0,0,0,0,0,0,0,0,0,0,0,0,0,0,0,0,0,0,0,0,0,0,0,0,0,0,0,0,0,0,0,0,0,0,0,0,0,0,0,0,0,0,0,0,0,0,0,0,0,0,0,0,0,0,0,0,0,0,-0.185,-0.1851,0,-0.1962,-0.1963,-0.1964,-0.2037,-0.2037,-0.2038,-0.2038,-0.2194,-0.2198,-0.2202,0,0,0,0,0,0,0,0,0,0,0,0,0,-0.1773,-0.1774,-0.1849,-0.1851,-0.1852,-0.1961,-0.1963,-0.1965,-0.2037,-0.2037,-0.2038,-0.2038,-0.2193,-0.2197,-0.2202,0,0,0,0,0,0,0,0,0,0,0,0,0,-0.1838,-0.1774,-0.1849,-0.1901,-0.1907,-0.1961,-0.1963,-0.1965,-0.2037,-0.2037,-0.2038,-0.2038,-0.2191,-0.2197,-0.2203,-0.2225,0,0,-0.222,-0.2222,0,0,0,0,0,0,0,0,-0.1834,-0.184,-0.1892,-0.1898,-0.1904,-0.1986,-0.1993,-0.2054,-0.2036,-0.1988,-0.2038,-0.2039,-0.2128,-0.2139,-0.2158,-0.2232,-0.2239,-0.222,-0.2224,-0.2226,-0.2228,0,0,0,0,0,0,0,-0.1829,-0.1837,-0.1894,-0.1894,-0.1901,-0.1945,-0.1954,-0.2005,-0.2054,-0.1992,-0.1997,-0.2009,-0.2132,-0.2152,-0.2163,-0.2241,-0.222,-0.2225,-0.2229,-0.2231,-0.2449,-0.2451,0,0,0,0,0,0,-0.181,-0.1832,-0.1891,-0.1897,-0.187,-0.1945,-0.1956,-0.1959,-0.2052,-0.2067,-0.2009,-0.2012,-0.2143,-0.2156,-0.2168,-0.23,-0.2226,-0.2231,-0.2235,-0.2446,-0.2449,-0.2452,0,0,0,0,0,0,-0.1808,-0.1814,-0.1886,-0.1868,-0.188,-0.1945,-0.1949,-0.1961,-0.2014,-0.2065,-0.208,-0.2052,-0.2144,-0.216,-0.2247,-0.2302,-0.2234,-0.2239,-0.2443,-0.2447,-0.245,-0.2498,0,0,0,0,0,0,-0.1805,-0.1812,-0.183,-0.1866,-0.188,-0.1931,-0.1949,-0.1963,-0.2018,-0.2025,-0.2107,-0.212,-0.2145,-0.2238,-0.2252,-0.2309,-0.2243,-0.244,-0.2445,-0.2449,-0.2494,-0.2503,-0.2511,0,0,0,0,0,-0.1802,-0.1818,-0.183,-0.1839,-0.1895,-0.1931,-0.1943,-0.1992,-0.202,-0.2043,-0.2109,-0.2119,-0.2277,-0.2245,-0.2261,-0.232,-0.2438,-0.2444,-0.2449,-0.249,-0.2501,-0.2511,0,0,0,0,0,0,-0.1799,-0.1828,-0.1842,-0.1867,-0.1902,-0.1944,-0.1978,-0.201,-0.208,-0.2099,-0.2148,-0.2166,-0.2261,-0.2285,-0.2248,-0.2397,-0.2361,-0.2369,-0.2386,-0.2397,-0.2406,-0.2384,-0.2248,0,0,0,0,0,-0.1802,-0.1821,-0.1852,-0.1876,-0.1894,-0.1942,-0.1973,-0.2002,-0.2057,-0.209,-0.2153,-0.2223,-0.2291,-0.2338,-0.2391,-0.2475,-0.2449,-0.2525,-0.2534,-0.2541,-0.2535,-0.255,-0.2558,-0.2469,-0.2469,-0.2469,0,0,-0.1809,-0.1828,-0.1841,-0.1878,-0.1911,-0.1946,-0.1963,-0.2011,-0.206,-0.2096,-0.22,-0.2254,-0.2317,-0.2409,-0.2455,-0.2442,-0.2549,-0.2548,-0.2553,-0.2543,-0.2556,-0.2565,-0.2572,-0.2473,-0.2472,-0.2472,0,0,-0.1812,-0.1845,-0.1855,-0.1886,-0.1933,-0.197,-0.1988,-0.2049,-0.2099,-0.2189,-0.2234,-0.2319,-0.2427,-0.2483,-0.2524,-0.2614,-0.2588,-0.2644,-0.2683,-0.2699,-0.2705,-0.2711,-0.2662,-0.2663,-0.2657,-0.2657,-0.2658,0,-0.1823,-0.1841,-0.1868,-0.1887,-0.1928,-0.1983,-0.2016,-0.2071,-0.2161,-0.2209,-0.2229,-0.2404,-0.246,-0.2571,-0.2609,-0.2634,-0.2612,-0.2636,-0.2707,-0.2712,-0.2717,-0.2666,-0.2666,-0.266,-0.266,-0.266,-0.2659,0,-0.1816,-0.1856,-0.1871,-0.1917,-0.196,-0.2005,-0.2071,-0.2138,-0.2214,-0.2268,-0.2396,-0.2478,-0.2575,-0.2622,-0.265,-0.2734,-0.2693,-0.2705,-0.267,-0.2728,-0.2671,-0.267,-0.2665,-0.2664,-0.2663,-0.2662,0,0,-0.1787,-0.1854,-0.1867,-0.1899,-0.1988,-0.2017,-0.2111,-0.2202,-0.2265,-0.2373,-0.246,-0.2599,-0.2638,-0.2687,-0.2742,-0.2776,-0.2792,-0.2763,-0.2762,-0.2695,-0.2777,-0.2563,-0.2541,-0.2816,-0.2817,-0.2818,-0.2712,0,-0.1788,-0.1825,-0.1872,-0.1945,-0.1978,-0.2067,-0.2144,-0.2233,-0.2328,-0.2424,-0.2527,-0.2628,-0.2665,-0.2724,-0.2766,-0.2802,-0.2797,-0.2816,-0.2748,-0.2744,-0.2532,-0.2536,-0.2821,-0.2711,-0.2711,-0.2711,-0.2711,0,-0.1766,-0.1803,-0.1861,-0.1961,-0.1985,-0.2044,-0.2177,-0.2251,-0.2387,-0.2459,-0.2572,-0.2641,-0.2748,-0.2753,-0.2811,-0.2822,-0.2791,-0.2795,-0.2792,-0.2572,-0.2529,-0.2652,-0.2708,-0.2709,-0.2709,-0.2709,-0.2709,0,-0.1711,-0.1802,-0.1855,-0.1889,-0.2002,-0.2061,-0.2138,-0.2266,-0.2327,-0.2482,-0.2532,-0.2664,-0.2721,-0.2752,-0.277,-0.2795,-0.2776,-0.2807,-0.2567,-0.2549,-0.2753,-0.2749,-0.2788,-0.2788,-0.2788,-0.2788,-0.2789,0,-0.1684,-0.1733,-0.1838,-0.1862,-0.1933,-0.2028,-0.2117,-0.2212,-0.2333,-0.2379,-0.254,-0.2576,-0.2723,-0.2738,-0.275,-0.2633,-0.275,-0.2545,-0.2509,-0.2773,-0.2773,-0.275,-0.2747,-0.2784,-0.2785,-0.2786,-0.2787,0,-0.1612,-0.1685,-0.1747,-0.1867,-0.1904,-0.1956,-0.2078,-0.2121,-0.2261,-0.2324,-0.237,-0.2508,-0.2515,-0.2592,-0.2617,-0.2558,-0.251,-0.2423,-0.2648,-0.2632,-0.2272,-0.2274,-0.2148,-0.214,-0.2133,-0.2127,-0.2122,0,-0.1573,-0.1597,-0.1717,-0.174,-0.18,-0.1886,-0.1923,-0.2071,-0.2101,-0.2244,-0.2237,-0.2302,-0.2365,-0.2218,-0.2332,-0.2289,-0.227,-0.2219,-0.2292,-0.2229,-0.2208,-0.2221,-0.2232,-0.211,-0.2109,-0.2107,-0.2105,0,-0.1502,-0.156,-0.1604,-0.1636,-0.1685,-0.1724,-0.1789,-0.1788,-0.1928,-0.2071,-0.2037,-0.2047,-0.2022,-0.2055,-0.2012,-0.2004,-0.2266,-0.2145,-0.2161,-0.2229,-0.2182,-0.2171,-0.219,-0.208,-0.2084,-0.2086,-0.2087,0,-0.1453,-0.1457,-0.1501,-0.152,-0.1563,-0.1534,-0.1593,-0.1596,-0.1643,-0.1798,-0.1768,-0.1856,-0.1965,-0.1897,-0.1878,-0.1835,-0.1827,-0.1798,-0.1833,-0.1861,-0.1825,-0.1726,-0.1426,0,0,0,0,0,-0.1395,-0.1368,-0.1367,-0.137,-0.1397,-0.1415,-0.148,-0.1539,-0.1666,-0.1572,-0.1665,-0.1635,-0.1611,-0.1669,-0.1565,-0.1754,-0.1839,-0.1628,-0.1826,-0.1943,-0.1972,-0.196,0,0,0,0,0,0,-0.1346,-0.1353,-0.1325,-0.1232,-0.1199,-0.1205,-0.1238,-0.1321,-0.1277,-0.142,-0.1407,-0.1528,-0.1524,-0.1636,-0.1532,-0.1545,-0.1631,-0.1691,-0.1685,-0.1927,-0.1953,-0.1976,-0.1974,0,0,0,0,0]},{"header":{"parameterUnit":"m.s-1","parameterCategory":2,"la1":30.2991,"la2":30.254,"lo1":-89.0895,"lo2":-89.0444,"dy":0.0017,"dx":0.0017,"nx":28,"ny":28,"refTime":"2025-03-18T21:00:00:Z","depth":"4","parameterNumber":3,"parameterNumberName":"V-component_of_CURRENTS"},"data":[0,0,0,0,0,0,0,0,0,0,0,0,0,0,0,0,0,0,0,0,0,0,0,0,0,0,0,0,0,0,0,0,0,0,0,0,0,0,0,0,0,0,0,0,0,0,0,0,0,0,0,0,0,0,0,0,0,0,0.0076,0.0077,0,0.0101,0.0101,0.0101,0.0129,0.013,0.0131,0.0131,0.0211,0.0212,0.0214,0,0,0,0,0,0,0,0,0,0,0,0,0,0.0039,0.004,0.0076,0.0077,0.0077,0.0101,0.0101,0.0101,0.0129,0.013,0.0131,0.0131,0.021,0.0212,0.0214,0,0,0,0,0,0,0,0,0,0,0,0,0,0.0057,0.004,0.0076,0.0095,0.0098,0.0101,0.0101,0.0101,0.0129,0.013,0.0131,0.0132,0.021,0.0212,0.0214,0.021,0,0,0.0221,0.0222,0,0,0,0,0,0,0,0,0.0056,0.0058,0.0092,0.0094,0.0097,0.0115,0.0117,0.0141,0.0129,0.0115,0.0131,0.0132,0.0184,0.0189,0.0188,0.0214,0.0218,0.0221,0.0223,0.0224,0.0224,0,0,0,0,0,0,0,0.0055,0.0057,0.0084,0.0093,0.0095,0.0098,0.0101,0.0121,0.0144,0.0116,0.0119,0.0124,0.0186,0.0185,0.019,0.0219,0.0221,0.0223,0.0225,0.0226,0.0244,0.0243,0,0,0,0,0,0,0.0055,0.0056,0.0083,0.0085,0.008,0.0098,0.0102,0.0106,0.0143,0.0149,0.0124,0.0126,0.0181,0.0187,0.0193,0.0187,0.0224,0.0226,0.0227,0.0245,0.0244,0.0243,0,0,0,0,0,0,0.0054,0.0057,0.0082,0.0072,0.0076,0.0098,0.0103,0.0106,0.0112,0.0148,0.0155,0.0126,0.0182,0.019,0.0207,0.0191,0.0227,0.0229,0.0246,0.0244,0.0243,0.0178,0,0,0,0,0,0,0.0053,0.0057,0.0058,0.0072,0.0077,0.0082,0.0102,0.0106,0.0114,0.0117,0.0152,0.016,0.0183,0.0203,0.0209,0.0195,0.0231,0.0247,0.0245,0.0244,0.0181,0.0174,0.0169,0,0,0,0,0,0.0051,0.0052,0.0057,0.0061,0.0078,0.0082,0.0084,0.0101,0.0114,0.011,0.0132,0.016,0.0196,0.0204,0.0211,0.0197,0.0248,0.0246,0.0244,0.0184,0.0176,0.0169,0,0,0,0,0,0,0.0041,0.0056,0.0062,0.0068,0.0073,0.0087,0.0089,0.0099,0.0112,0.0119,0.0151,0.016,0.0167,0.019,0.0198,0.0196,0.0225,0.0224,0.0177,0.017,0.0163,0.0152,0.0233,0,0,0,0,0,0.0037,0.0039,0.0052,0.0055,0.0058,0.0071,0.0075,0.0086,0.0101,0.0107,0.0128,0.0149,0.0161,0.0173,0.0189,0.0192,0.0233,0.0186,0.018,0.0174,0.0169,0.0217,0.0215,0.0236,0.0236,0.0236,0,0,0.0033,0.0042,0.0043,0.0052,0.0058,0.0047,0.0076,0.0081,0.0067,0.0115,0.0105,0.013,0.0157,0.0155,0.016,0.0176,0.0191,0.0172,0.0167,0.0165,0.0215,0.0213,0.0212,0.0234,0.0235,0.0235,0,0,0.0023,0.0034,0.003,0.0026,0.0034,0.0035,0.0035,0.0046,0.0048,0.0044,0.007,0.0087,0.0104,0.0118,0.0128,0.0098,0.0155,0.0101,0.0063,0.0109,0.0108,0.0108,0.0163,0.0168,0.0099,0.0099,0.0098,0,0.0018,0.001,0.0028,0.0016,0.0003,0.0026,0.0004,0.0006,0.0017,0.0015,0.0034,0.0055,0.0084,0.0081,0.0068,0.0084,0.0124,0.0089,0.0102,0.0102,0.0103,0.016,0.0166,0.0095,0.0096,0.0096,0.0096,0,0.0005,-0.0014,-0.0018,-0.0033,-0.0044,-0.0058,-0.0058,-0.0066,-0.0059,-0.0053,-0.005,-0.0013,0.0001,0.0009,0.003,0.0038,0.007,0.0089,0.0122,0.0097,0.0158,0.0166,0.009,0.0091,0.0093,0.0093,0,0,0.0001,-0.0022,-0.0032,-0.006,-0.0076,-0.0091,-0.0117,-0.0136,-0.0153,-0.0131,-0.0146,-0.0121,-0.0089,-0.0076,-0.0042,-0.0004,0.004,0.0039,0.0043,0.0096,0.0153,0.0142,0.0151,0.0064,0.0065,0.0066,0.0195,0,-0.0026,-0.0062,-0.0071,-0.0133,-0.0162,-0.0169,-0.0202,-0.0213,-0.0211,-0.0216,-0.0172,-0.0168,-0.0125,-0.0116,-0.0072,0.001,0.0057,0.0004,0.0167,0.0172,0.0168,0.0158,0.0068,0.0201,0.0203,0.0205,0.0206,0,-0.0052,-0.0079,-0.0132,-0.02,-0.0213,-0.0247,-0.03,-0.032,-0.0317,-0.031,-0.0287,-0.0249,-0.0201,-0.0157,-0.0021,-0.0056,0.004,0.0111,0.0119,0.0136,0.0175,0.0231,0.0221,0.022,0.0219,0.0218,0.0217,0,-0.0076,-0.0137,-0.0184,-0.0206,-0.0262,-0.0298,-0.0329,-0.0348,-0.0372,-0.0363,-0.0366,-0.0301,-0.0262,-0.0147,-0.0004,-0.0008,0.0159,0.0178,0.0261,0.0263,0.0265,0.0264,0.0279,0.0279,0.0279,0.0278,0.0278,0,-0.0113,-0.0161,-0.0203,-0.0232,-0.0307,-0.0332,-0.0398,-0.0415,-0.0433,-0.0455,-0.041,-0.04,-0.0257,-0.0151,-0.0016,0.0146,0.0158,0.0254,0.0291,0.0235,0.0229,0.0272,0.0269,0.0283,0.0282,0.0281,0.028,0,-0.0138,-0.016,-0.0224,-0.0289,-0.032,-0.0369,-0.0448,-0.0483,-0.0496,-0.052,-0.052,-0.0457,-0.0318,-0.0165,0.0036,0.0127,0.0284,0.0343,0.0276,0.0308,0.0363,0.0356,0.0444,0.0444,0.0445,0.0445,0.0446,0,-0.0153,-0.0181,-0.0259,-0.0297,-0.0333,-0.0409,-0.046,-0.0508,-0.0537,-0.055,-0.0553,-0.0455,-0.0387,-0.0108,0.0048,0.0297,0.033,0.0404,0.0373,0.0351,0.0379,0.037,0.0362,0.0447,0.0447,0.0447,0.0447,0,-0.018,-0.0197,-0.0237,-0.0308,-0.0373,-0.0453,-0.0522,-0.0558,-0.0598,-0.0615,-0.0567,-0.0455,-0.03,-0.0103,0.0087,0.0262,0.0344,0.0409,0.041,0.0381,0.0355,0.038,0.0372,0.0449,0.0448,0.0448,0.0448,0,-0.0191,-0.0211,-0.0244,-0.0311,-0.0386,-0.0458,-0.0516,-0.0547,-0.0583,-0.0599,-0.0576,-0.0433,-0.0352,-0.0119,0.0056,0.0221,0.0259,0.0299,0.0306,0.0306,0.0215,0.0158,0.0222,0,0,0,0,0,-0.0196,-0.0199,-0.0248,-0.0307,-0.0377,-0.0414,-0.0529,-0.0577,-0.0631,-0.0594,-0.0587,-0.0443,-0.0216,-0.0123,0.0046,0.007,0.0288,0.0269,0.0339,0.0458,0.0456,0.037,0,0,0,0,0,0,-0.0191,-0.0219,-0.0228,-0.0281,-0.0308,-0.0386,-0.0457,-0.0508,-0.0493,-0.0526,-0.0397,-0.0376,-0.014,-0.0266,0.0076,0.0116,0.018,0.037,0.0373,0.046,0.0458,0.0456,0.0366,0,0,0,0,0]}]]